Regional Weather Roundup
Issued by NWS Newport/Morehead, NC

Current Version | Previous Version | Graphics & Text | Print | Product List | Glossary On
Versions: 1 2 3 4 5 6 7 8 9 10 11 12 13 14 15 16 17 18 19 20 21 22 23 24 25 26 27 28 29 30 31 32 33 34 35 36 37 38 39 40 41 42 43 44 45 46 47 48 49 50
000 ASUS42 KMHX 251613 RWRMHX WEATHER ROUNDUP FOR EASTERN NORTH CAROLINA NATIONAL WEATHER SERVICE NEWPORT/MOREHEAD CITY NC 1200 PM EDT WED MAY 25 2016 NOTE: "FAIR" INDICATES FEW OR NO CLOUDS BELOW 12,000 FEET WITH NO SIGNIFICANT WEATHER AND/OR OBSTRUCTIONS TO VISIBILITY NCZ015>017-031-032-045>047-102-103-251700- NORTH COAST CITY SKY/WX TMP DP RH WIND PRES REMARKS EDENTON SUNNY 81 70 67 W6 30.22S ELIZABETH CITY SUNNY 82 60 47 SW13 30.19F KITTY HAWK SUNNY 82 60 46 CALM 30.20S MANTEO SUNNY 80 61 52 NW5 30.21S $$ NCZ045>047-081-094-103-104-251700- CENTRAL COAST CITY SKY/WX TMP DP RH WIND PRES REMARKS FRISCO SUNNY 77 63 61 W9 30.23S $$ NCZ095-097-098-100-101-251700- SOUTHERN COAST CITY SKY/WX TMP DP RH WIND PRES REMARKS BEAUFORT SUNNY 77 67 71 S9 30.24S CEDAR ISLAND NOT AVBL JACKSONVILLE SUNNY 83 56 39 VRB5 30.23S PINEY ISLAND NOT AVBL WILMINGTON MOSUNNY 83 59 44 SW8 30.23F $$ NCZ011>013-027>030-043-044-078>080-089-090>093-098-251700- COASTAL PLAIN CITY SKY/WX TMP DP RH WIND PRES REMARKS AHOSKIE SUNNY 80 61 53 CALM 30.20F CLINTON SUNNY 82 64 53 SW5 30.23F ELIZABETHTOWN SUNNY 82 64 53 SW3 30.23S GOLDSBORO SUNNY 83 61 46 VRB1 30.21S GREENVILLE SUNNY 82 63 51 SW6 30.23S HAVELOCK MOSUNNY 83 61 47 W9 30.24S KENANSVILLE MOSUNNY 81 59 47 CALM 30.24S KINSTON NOT AVBL NEW BERN SUNNY 83 60 45 SW8 30.24S RICHLANDS MOSUNNY 85 62 46 SW8 30.23F ROCKY MOUNT SUNNY 83 58 42 VRB5 30.21F WASHINGTON SUNNY 82 60 47 SW6 30.22S WHITEVILLE SUNNY 81 64 56 S5 30.23F $$ AMZ130-135-150-152-154-156-158-170-250-252-270-ANZ085-086-088-633-658-670-251700- MARINE OBSERVATIONS STATION/POSITION TIME TEMP WIND PRES WAVE SWELL AIR SEA DIR/SP/G HT/PER HT/PER (UTC) (F) (DEG/KT/KT) (MB) (FT/S) (FT/S) CHESAPEAKE LIGHT 1500 72 280/ 11/ 12 1022.7 64 E VA BEACH 1550 61 58 240/ 6/ 8 1022.1 3/ 9 2/ 9 DUCK 1500 73 61 240/ 11/ 14 1022.0 2 E DUCK 1511 62 N/A 2/10 OREGON INLET 1512 74 69 180/ 6/ 7 1022.9 13E OREGON INLT 1500 65 N/A 3/ 5 3/ 5 HATTERAS CG 1512 72 68 270/ 7/ 10 1023.2 DIAMOND BUOY 1550 69 70 260/ 6/ 6 1023.8 3/ 9 2/ 9 CAPE LOOKOUT 1600 75 250/ 7/ 9 1023.8 BEAUFORT LAB 1500 74 68 210/ 6/ 8 1023.3 30 SE NEW RVR IN 1555 74 N/A 2/10 27 SE WRIGHTSVLE 1508 74 73 270/ 6/ 8 1024.0 5 SE WRIGHTSVLE 1508 73 72 200/ 8/ 10 1024.7 225 S CAPE HAT 1550 74 78 50/ 8/ 10 1025.2 3/ 7 3/ 7 41 SE CHARLESTON 1550 77 78 220/ 2/ 4 1024.5 2/ 8 2/ 8 $$

USA.gov is the U.S. government's official web portal to all federal, state and local government web resources and services.